START_TIME,STEP,MOV.,M6,t_acc.,M7,t_acc.,M19,t_acc.,H36,t_acc.
1980-11-15 03:00:15.680 ,3,0,0.,12.0,0.,12.0,0.,12.0,0.,12.0
1980-11-15 03:00:27.680 ,3,0,0.,12.0,0.,12.0,0.,12.0,0.,12.0
1980-11-15 03:00:39.680 ,2,1,0.,12.0,0.,12.0,0.,12.0,0.,12.0
1980-11-15 03:00:51.680 ,2,1,0.,12.0,0.,12.0,0.,12.0,0.,12.0
1980-11-15 03:01:03.680 ,2,0,0.,12.0,0.,12.0,0.,12.0,0.,12.0
1980-11-15 03:01:15.680 ,2,0,0.,12.0,0.,12.0,0.,12.0,0.,12.0
1980-11-15 03:01:27.680 ,1,1,0.,12.0,0.,12.0,0.,12.0,0.,12.0
1980-11-15 03:01:39.680 ,1,1,0.,12.0,0.,12.0,0.,12.0,0.,12.0
1980-11-15 03:01:51.680 ,1,0,0.,12.0,0.,12.0,0.,12.0,0.,12.0
1980-11-15 03:02:03.680 ,1,0,0.,12.0,0.,12.0,0.,12.0,0.,12.0
1980-11-15 03:02:15.680 ,0,1,0.,12.0,0.,12.0,0.,12.0,0.,12.0
1980-11-15 03:02:27.680 ,0,1,0.,12.0,0.,12.0,0.,12.0,0.,12.0
1980-11-15 03:02:39.680 ,0,0,0.,12.0,0.,12.0,0.,12.0,0.,12.0
1980-11-15 03:02:51.680 ,0,0,0.,12.0,0.,12.0,0.,12.0,0.,12.0
1980-11-15 03:03:03.680 ,0,1,0.,12.0,0.,12.0,0.,12.0,0.,12.0
1980-11-15 03:03:15.680 ,0,1,0.,12.0,0.,12.0,0.,12.0,0.,12.0
1980-11-15 03:03:27.680 ,0,0,0.,12.0,0.,12.0,0.,12.0,0.,12.0
1980-11-15 03:03:39.680 ,0,0,0.,12.0,0.,12.0,0.,12.0,0.,12.0
1980-11-15 03:03:51.680 ,1,1,0.,12.0,0.,12.0,0.,12.0,0.,12.0
1980-11-15 03:04:03.680 ,1,1,0.,12.0,0.,12.0,0.,12.0,0.,12.0
1980-11-15 03:04:15.680 ,1,0,0.,12.0,0.,12.0,0.,12.0,0.,12.0
1980-11-15 03:04:27.680 ,1,0,0.,12.0,0.,12.0,0.,12.0,0.,12.0
1980-11-15 03:04:39.680 ,2,1,0.,12.0,0.,12.0,0.,12.0,0.,12.0
1980-11-15 03:04:51.680 ,2,1,0.,12.0,0.,12.0,0.,12.0,0.,12.0
1980-11-15 03:05:03.680 ,2,0,0.,12.0,0.,12.0,0.,12.0,0.,12.0
1980-11-15 03:05:15.680 ,2,0,0.,12.0,0.,12.0,0.,12.0,0.,12.0
1980-11-15 03:05:27.680 ,3,1,0.,12.0,0.,12.0,0.,12.0,0.,12.0
1980-11-15 03:05:39.680 ,3,1,0.,12.0,0.,12.0,0.,12.0,0.,12.0
1980-11-15 03:05:51.680 ,3,0,0.,12.0,0.,12.0,0.,12.0,0.,12.0
1980-11-15 03:06:03.680 ,3,0,0.,12.0,0.,12.0,0.,12.0,0.,12.0
1980-11-15 03:06:15.680 ,4,1,0.,12.0,0.,12.0,0.,12.0,0.,12.0
1980-11-15 03:06:27.680 ,4,1,0.,12.0,0.,12.0,0.,12.0,0.,12.0
1980-11-15 03:06:39.680 ,4,0,0.,12.0,0.,12.0,0.,12.0,0.,12.0
1980-11-15 03:06:51.680 ,4,0,0.,12.0,0.,12.0,0.,12.0,0.,12.0
1980-11-15 03:07:03.680 ,5,1,0.,12.0,0.,12.0,0.,12.0,0.,12.0
1980-11-15 03:07:15.680 ,5,1,0.,12.0,0.,12.0,0.,12.0,0.,12.0
1980-11-15 03:07:27.680 ,5,0,0.,12.0,0.,12.0,0.,12.0,0.,12.0
1980-11-15 03:07:39.680 ,5,0,0.,12.0,0.,12.0,0.,12.0,0.,12.0
1980-11-15 03:07:51.680 ,6,1,0.,12.0,0.,12.0,0.,12.0,0.,12.0
1980-11-15 03:08:03.680 ,6,1,0.,12.0,0.,12.0,0.,12.0,0.,12.0
1980-11-15 03:08:15.680 ,6,0,0.,12.0,0.,12.0,0.,12.0,0.,12.0
1980-11-15 03:08:27.680 ,6,0,0.,12.0,0.,12.0,0.,12.0,0.,12.0
1980-11-15 03:08:39.680 ,7,1,0.,12.0,0.,12.0,0.,12.0,0.,12.0
1980-11-15 03:08:51.680 ,7,1,0.,12.0,0.,12.0,0.,12.0,0.,12.0
1980-11-15 03:09:03.680 ,7,0,0.,12.0,0.,12.0,0.,12.0,0.,12.0
1980-11-15 03:09:15.680 ,7,0,0.,12.0,0.,12.0,0.,12.0,0.,12.0
1980-11-15 03:09:27.680 ,7,1,0.,12.0,0.,12.0,0.,12.0,0.,12.0
1980-11-15 03:09:39.680 ,7,1,0.,12.0,0.,12.0,0.,12.0,0.,12.0
1980-11-15 03:09:51.680 ,7,0,0.,12.0,0.,12.0,0.,12.0,0.,12.0
1980-11-15 03:10:03.680 ,7,0,0.,12.0,0.,12.0,0.,12.0,0.,12.0
1980-11-15 03:10:15.680 ,6,1,0.,12.0,0.,12.0,0.,12.0,0.,12.0
1980-11-15 03:10:27.680 ,6,1,0.,12.0,0.,12.0,0.,12.0,0.,12.0
1980-11-15 03:10:39.680 ,6,0,0.,12.0,0.,12.0,0.,12.0,0.,12.0
1980-11-15 03:10:51.680 ,6,0,0.,12.0,0.,12.0,0.,12.0,0.,12.0
1980-11-15 03:11:03.680 ,5,1,0.,12.0,0.,12.0,0.,12.0,0.,12.0
1980-11-15 03:11:15.680 ,5,1,0.,12.0,0.,12.0,0.,12.0,0.,12.0
1980-11-15 03:11:27.680 ,5,0,0.,12.0,0.,12.0,0.,12.0,0.,12.0
1980-11-15 03:11:39.680 ,5,0,0.,12.0,0.,12.0,0.,12.0,0.,12.0
1980-11-15 03:11:51.680 ,4,1,0.,12.0,0.,12.0,0.,12.0,0.,12.0
1980-11-15 03:12:03.680 ,4,1,0.,12.0,0.,12.0,0.,12.0,0.,12.0
1980-11-15 03:12:15.680 ,4,0,0.,12.0,0.,12.0,0.,12.0,0.,12.0
1980-11-15 03:12:27.680 ,4,0,0.,12.0,0.,12.0,0.,12.0,0.,12.0
1980-11-15 03:12:39.680 ,3,1,0.,12.0,0.,12.0,0.,12.0,0.,12.0
1980-11-15 03:12:51.680 ,3,1,0.,12.0,0.,12.0,0.,12.0,0.,12.0
1980-11-15 03:13:03.680 ,3,0,0.,12.0,0.,12.0,0.,12.0,0.,12.0
1980-11-15 03:13:15.680 ,3,0,0.,12.0,0.,12.0,0.,12.0,0.,12.0
1980-11-15 03:13:27.680 ,2,1,0.,12.0,0.,12.0,0.,12.0,0.,12.0
1980-11-15 03:13:39.680 ,2,1,0.,12.0,0.,12.0,0.,12.0,0.,12.0
1980-11-15 03:13:51.680 ,2,0,0.,12.0,0.,12.0,0.,12.0,0.,12.0
1980-11-15 03:14:03.680 ,2,0,0.,12.0,0.,12.0,0.,12.0,0.,12.0
1980-11-15 03:14:15.680 ,1,1,0.,12.0,0.,12.0,0.,12.0,0.,12.0
1980-11-15 03:14:27.680 ,1,1,0.,12.0,0.,12.0,0.,12.0,0.,12.0
1980-11-15 03:14:39.680 ,1,0,0.,12.0,0.,12.0,0.,12.0,0.,12.0
1980-11-15 03:14:51.680 ,1,0,0.,12.0,0.,12.0,0.,12.0,0.,12.0
1980-11-15 03:15:03.680 ,0,1,0.,12.0,0.,12.0,0.,12.0,0.,12.0
1980-11-15 03:15:15.680 ,0,1,0.,12.0,0.,12.0,0.,12.0,0.,12.0
1980-11-15 03:15:27.680 ,0,0,0.,12.0,0.,12.0,0.,12.0,0.,12.0
1980-11-15 03:15:39.680 ,0,0,0.,12.0,0.,12.0,0.,12.0,0.,12.0
1980-11-15 03:15:51.680 ,0,1,0.,12.0,0.,12.0,0.,12.0,0.,12.0
1980-11-15 03:16:03.680 ,0,1,0.,12.0,0.,12.0,0.,12.0,0.,12.0
1980-11-15 03:16:15.680 ,0,0,0.,12.0,0.,12.0,0.,12.0,0.,12.0
1980-11-15 03:16:27.680 ,0,0,0.,12.0,0.,12.0,0.,12.0,0.,12.0
1980-11-15 03:16:39.680 ,1,1,0.,12.0,0.,12.0,0.,12.0,0.,12.0
1980-11-15 03:16:51.680 ,1,1,0.,12.0,0.,12.0,0.,12.0,0.,12.0
1980-11-15 03:17:03.680 ,1,0,0.,12.0,0.,12.0,0.,12.0,0.,12.0
1980-11-15 03:17:15.680 ,1,0,0.,12.0,0.,12.0,0.,12.0,0.,12.0
1980-11-15 03:17:27.680 ,2,1,0.,12.0,0.,12.0,0.,12.0,0.,12.0
1980-11-15 03:17:39.680 ,2,1,0.,12.0,0.,12.0,0.,12.0,0.,12.0
1980-11-15 03:17:51.680 ,2,0,0.,12.0,0.,12.0,0.,12.0,0.,12.0
1980-11-15 03:18:03.680 ,2,0,0.,12.0,0.,12.0,0.,12.0,0.,12.0
1980-11-15 03:18:15.680 ,3,1,0.,12.0,0.,12.0,0.,12.0,0.,12.0
1980-11-15 03:18:27.680 ,3,1,0.,12.0,0.,12.0,0.,12.0,0.,12.0
1980-11-15 03:18:39.680 ,3,0,0.,12.0,0.,12.0,0.,12.0,0.,12.0
1980-11-15 03:18:51.680 ,3,0,0.,12.0,0.,12.0,0.,12.0,0.,12.0
1980-11-15 03:19:03.680 ,4,1,0.,12.0,0.,12.0,0.,12.0,0.,12.0
1980-11-15 03:19:15.680 ,4,1,0.,12.0,0.,12.0,0.,12.0,0.,12.0
1980-11-15 03:19:27.680 ,4,0,0.,12.0,0.,12.0,0.,12.0,0.,12.0
1980-11-15 03:19:39.680 ,4,0,0.,12.0,0.,12.0,0.,12.0,0.,12.0
1980-11-15 03:19:51.680 ,5,1,0.,12.0,0.,12.0,0.,12.0,0.,12.0
1980-11-15 03:20:03.680 ,5,1,0.,12.0,0.,12.0,0.,12.0,0.,12.0
1980-11-15 03:20:15.680 ,5,0,0.,12.0,0.,12.0,0.,12.0,0.,12.0
1980-11-15 03:20:27.680 ,5,0,0.,12.0,0.,12.0,0.,12.0,0.,12.0
1980-11-15 03:20:39.680 ,6,1,0.,12.0,0.,12.0,0.,12.0,0.,12.0
1980-11-15 03:20:51.680 ,6,1,0.,12.0,0.,12.0,0.,12.0,0.,12.0
1980-11-15 03:21:03.680 ,6,0,0.,12.0,0.,12.0,0.,12.0,0.,12.0
1980-11-15 03:21:15.680 ,6,0,0.,12.0,0.,12.0,0.,12.0,0.,12.0
1980-11-15 03:21:27.680 ,7,1,0.,12.0,0.,12.0,0.,12.0,0.,12.0
1980-11-15 03:21:39.680 ,7,1,0.,12.0,0.,12.0,0.,12.0,0.,12.0
1980-11-15 03:21:51.680 ,7,0,0.,12.0,0.,12.0,0.,12.0,0.,12.0
1980-11-15 03:22:03.680 ,7,0,0.,12.0,0.,12.0,0.,12.0,0.,12.0
1980-11-15 03:22:15.680 ,7,1,0.,12.0,0.,12.0,0.,12.0,0.,12.0
1980-11-15 03:22:27.680 ,7,1,0.,12.0,0.,12.0,0.,12.0,0.,12.0
1980-11-15 03:22:39.680 ,7,0,0.,12.0,0.,12.0,0.,12.0,0.,12.0
1980-11-15 03:22:51.680 ,7,0,0.,12.0,0.,12.0,0.,12.0,0.,12.0
1980-11-15 03:23:03.680 ,6,1,0.,12.0,0.,12.0,0.,12.0,0.,12.0
1980-11-15 03:23:15.680 ,6,1,0.,12.0,0.,12.0,0.,12.0,0.,12.0
1980-11-15 03:23:27.680 ,6,0,0.,12.0,0.,12.0,0.,12.0,0.,12.0
1980-11-15 03:23:39.680 ,6,0,0.,12.0,0.,12.0,0.,12.0,0.,12.0
1980-11-15 03:23:51.680 ,5,1,0.,12.0,0.,12.0,0.,12.0,0.,12.0
1980-11-15 03:24:03.680 ,5,1,0.,12.0,0.,12.0,0.,12.0,0.,12.0
1980-11-15 03:24:15.680 ,5,0,0.,12.0,0.,12.0,0.,12.0,0.,12.0
1980-11-15 03:24:27.680 ,5,0,0.,12.0,0.,12.0,0.,12.0,0.,12.0
1980-11-15 03:24:39.680 ,4,1,0.,12.0,0.,12.0,0.,12.0,0.,12.0
1980-11-15 03:24:51.680 ,4,1,0.,12.0,0.,12.0,0.,12.0,0.,12.0
1980-11-15 03:25:03.680 ,4,0,0.,12.0,0.,12.0,0.,12.0,0.,12.0
1980-11-15 03:25:15.680 ,4,0,0.,12.0,0.,12.0,0.,12.0,0.,12.0
1980-11-15 03:25:27.680 ,3,1,0.,12.0,0.,12.0,0.,12.0,0.,12.0
1980-11-15 03:25:39.680 ,3,1,0.,12.0,0.,12.0,0.,12.0,0.,12.0
1980-11-15 03:25:51.680 ,3,0,0.,12.0,0.,12.0,0.,12.0,0.,12.0
1980-11-15 03:26:03.680 ,3,0,0.,12.0,0.,12.0,0.,12.0,0.,12.0
1980-11-15 03:26:15.680 ,2,1,0.,12.0,0.,12.0,0.,12.0,0.,12.0
1980-11-15 03:26:27.680 ,2,1,0.,12.0,0.,12.0,0.,12.0,0.,12.0
1980-11-15 03:26:39.680 ,2,0,0.,12.0,0.,12.0,0.,12.0,0.,12.0
1980-11-15 03:26:51.680 ,2,0,0.,12.0,0.,12.0,0.,12.0,0.,12.0
1980-11-15 03:27:03.680 ,1,1,0.,12.0,0.,12.0,0.,12.0,0.,12.0
1980-11-15 03:27:15.680 ,1,1,0.,12.0,0.,12.0,0.,12.0,0.,12.0
1980-11-15 03:27:27.680 ,1,0,0.,12.0,0.,12.0,0.,12.0,0.,12.0
1980-11-15 03:27:39.680 ,1,0,0.,12.0,0.,12.0,0.,12.0,0.,12.0
1980-11-15 03:27:51.680 ,0,1,0.,12.0,0.,12.0,0.,12.0,0.,12.0
1980-11-15 03:28:03.680 ,0,1,0.,12.0,0.,12.0,0.,12.0,0.,12.0
1980-11-15 03:28:15.680 ,0,0,0.,12.0,0.,12.0,0.,12.0,0.,12.0
1980-11-15 03:28:27.680 ,0,0,0.,12.0,0.,12.0,0.,12.0,0.,12.0
1980-11-15 03:28:39.680 ,0,1,0.,12.0,0.,12.0,0.,12.0,0.,12.0
1980-11-15 03:28:51.680 ,0,1,0.,12.0,0.,12.0,0.,12.0,0.,12.0
1980-11-15 03:29:03.680 ,0,0,0.,12.0,0.,12.0,0.,12.0,0.,12.0
1980-11-15 03:29:15.680 ,0,0,0.,12.0,0.,12.0,0.,12.0,0.,12.0
1980-11-15 03:29:27.680 ,1,1,0.,12.0,0.,12.0,0.,12.0,0.,12.0
1980-11-15 03:29:39.680 ,1,1,0.,12.0,0.,12.0,0.,12.0,0.,12.0
1980-11-15 03:29:51.680 ,1,0,0.,12.0,0.,12.0,0.,12.0,0.,12.0
1980-11-15 03:30:03.680 ,1,0,0.,12.0,0.,12.0,0.,12.0,0.,12.0
1980-11-15 03:30:15.680 ,2,1,0.,12.0,0.,12.0,0.,12.0,0.,12.0
1980-11-15 03:30:27.680 ,2,1,0.,12.0,0.,12.0,0.,12.0,0.,12.0
1980-11-15 03:30:39.680 ,2,0,0.,12.0,0.,12.0,0.,12.0,0.,12.0
1980-11-15 03:30:51.680 ,2,0,0.,12.0,0.,12.0,0.,12.0,0.,12.0
1980-11-15 03:31:03.680 ,3,1,0.,12.0,0.,12.0,0.,12.0,0.,12.0
1980-11-15 03:31:15.680 ,3,1,0.,12.0,0.,12.0,0.,12.0,0.,12.0
1980-11-15 03:31:27.680 ,3,0,0.,12.0,0.,12.0,0.,12.0,0.,12.0
1980-11-15 03:31:39.680 ,3,0,0.,12.0,0.,12.0,0.,12.0,0.,12.0
1980-11-15 03:31:51.680 ,4,1,0.,12.0,0.,12.0,0.,12.0,0.,12.0
1980-11-15 03:32:03.680 ,4,1,0.,12.0,0.,12.0,0.,12.0,0.,12.0
1980-11-15 03:32:15.680 ,4,0,0.,12.0,0.,12.0,0.,12.0,0.,12.0
1980-11-15 03:32:27.680 ,4,0,0.,12.0,0.,12.0,0.,12.0,0.,12.0
1980-11-15 03:32:39.680 ,5,1,0.,12.0,0.,12.0,0.,12.0,0.,12.0
1980-11-15 03:32:51.680 ,5,1,0.,12.0,0.,12.0,0.,12.0,0.,12.0
1980-11-15 03:33:03.680 ,5,0,0.,12.0,0.,12.0,0.,12.0,0.,12.0
1980-11-15 03:33:15.680 ,5,0,0.,12.0,0.,12.0,0.,12.0,0.,12.0
1980-11-15 03:33:27.680 ,6,1,0.,12.0,0.,12.0,0.,12.0,0.,12.0
1980-11-15 03:33:39.680 ,6,1,0.,12.0,0.,12.0,0.,12.0,0.,12.0
1980-11-15 03:33:51.680 ,6,0,0.,12.0,0.,12.0,0.,12.0,0.,12.0
1980-11-15 03:34:03.680 ,6,0,0.,12.0,0.,12.0,0.,12.0,0.,12.0
1980-11-15 03:34:15.680 ,7,1,0.,12.0,0.,12.0,0.,12.0,0.,12.0
1980-11-15 03:34:27.680 ,7,1,0.,12.0,0.,12.0,0.,12.0,0.,12.0
1980-11-15 03:34:39.680 ,7,0,0.,12.0,0.,12.0,0.,12.0,0.,12.0
1980-11-15 03:34:51.680 ,7,0,0.,12.0,0.,12.0,0.,12.0,0.,12.0
1980-11-15 03:35:03.680 ,7,1,0.,12.0,0.,12.0,0.,12.0,0.,12.0
1980-11-15 03:35:15.680 ,7,1,0.,12.0,0.,12.0,0.,12.0,0.,12.0
1980-11-15 03:35:27.680 ,7,0,0.,12.0,0.,12.0,0.,12.0,0.,12.0
1980-11-15 03:35:39.680 ,7,0,0.,12.0,0.,12.0,0.,12.0,0.,12.0
1980-11-15 03:35:51.680 ,6,1,0.,12.0,0.,12.0,0.,12.0,0.,12.0
1980-11-15 03:36:03.680 ,6,1,0.,12.0,0.,12.0,0.,12.0,0.,12.0
1980-11-15 03:36:15.680 ,6,0,0.,12.0,0.,12.0,0.,12.0,0.,12.0
1980-11-15 03:36:27.680 ,6,0,0.,12.0,0.,12.0,0.,12.0,0.,12.0
1980-11-15 03:36:39.680 ,5,1,0.,12.0,0.,12.0,0.,12.0,0.,12.0
1980-11-15 03:36:51.680 ,5,1,0.,12.0,0.,12.0,0.,12.0,0.,12.0
1980-11-15 03:37:03.680 ,5,0,0.,12.0,0.,12.0,0.,12.0,0.,12.0
1980-11-15 03:37:15.680 ,5,0,0.,12.0,0.,12.0,0.,12.0,0.,12.0
1980-11-15 03:37:27.680 ,4,1,0.,12.0,0.,12.0,0.,12.0,0.,12.0
1980-11-15 03:37:39.680 ,4,1,0.,12.0,0.,12.0,0.,12.0,0.,12.0
1980-11-15 03:37:51.680 ,4,0,0.,12.0,0.,12.0,0.,12.0,0.,12.0
1980-11-15 03:38:03.680 ,4,0,0.,12.0,0.,12.0,0.,12.0,0.,12.0
1980-11-15 03:38:15.680 ,3,1,0.,12.0,0.,12.0,0.,12.0,0.,12.0
1980-11-15 03:38:27.680 ,3,1,0.,12.0,0.,12.0,0.,12.0,0.,12.0
1980-11-15 03:38:39.680 ,3,0,0.,12.0,0.,12.0,0.,12.0,0.,12.0
1980-11-15 03:38:51.680 ,3,0,0.,12.0,0.,12.0,0.,12.0,0.,12.0
1980-11-15 03:39:03.680 ,2,1,0.,12.0,0.,12.0,0.,12.0,0.,12.0
1980-11-15 03:39:15.680 ,2,1,0.,12.0,0.,12.0,0.,12.0,0.,12.0
1980-11-15 03:39:27.680 ,2,0,0.,12.0,0.,12.0,0.,12.0,0.,12.0
1980-11-15 03:39:39.680 ,2,0,0.,12.0,0.,12.0,0.,12.0,0.,12.0
1980-11-15 03:39:51.680 ,1,1,0.,12.0,0.,12.0,0.,12.0,0.,12.0
1980-11-15 03:40:03.680 ,1,1,0.,12.0,0.,12.0,0.,12.0,0.,12.0
1980-11-15 03:40:15.680 ,1,0,0.,12.0,0.,12.0,0.,12.0,0.,12.0
1980-11-15 03:40:27.680 ,1,0,0.,12.0,0.,12.0,0.,12.0,0.,12.0
1980-11-15 03:40:39.680 ,0,1,0.,12.0,0.,12.0,0.,12.0,0.,12.0
1980-11-15 03:40:51.680 ,0,1,0.,12.0,0.,12.0,0.,12.0,0.,12.0
1980-11-15 03:41:03.680 ,0,0,0.,12.0,0.,12.0,0.,12.0,0.,12.0
1980-11-15 03:41:15.680 ,0,0,0.,12.0,0.,12.0,0.,12.0,0.,12.0
1980-11-15 03:41:27.680 ,0,1,0.,12.0,0.,12.0,0.,12.0,0.,12.0
1980-11-15 03:41:39.680 ,0,1,0.,12.0,0.,12.0,0.,12.0,0.,12.0
1980-11-15 03:41:51.680 ,0,0,0.,12.0,0.,12.0,0.,12.0,0.,12.0
1980-11-15 03:42:03.680 ,0,0,0.,12.0,0.,12.0,0.,12.0,0.,12.0
1980-11-15 03:42:15.680 ,1,1,0.,12.0,0.,12.0,0.,12.0,0.,12.0
1980-11-15 03:42:27.680 ,1,1,0.,12.0,0.,12.0,0.,12.0,0.,12.0
1980-11-15 03:42:39.680 ,1,0,0.,12.0,0.,12.0,0.,12.0,0.,12.0
1980-11-15 03:42:51.680 ,1,0,0.,12.0,0.,12.0,0.,12.0,0.,12.0
1980-11-15 03:43:03.680 ,2,1,0.,12.0,0.,12.0,0.,12.0,0.,12.0
1980-11-15 03:43:15.680 ,2,1,0.,12.0,0.,12.0,0.,12.0,0.,12.0
1980-11-15 03:43:27.680 ,2,0,0.,12.0,0.,12.0,0.,12.0,0.,12.0
1980-11-15 03:43:39.680 ,2,0,0.,12.0,0.,12.0,0.,12.0,0.,12.0
1980-11-15 03:43:51.680 ,3,1,0.,12.0,0.,12.0,0.,12.0,0.,12.0
1980-11-15 03:44:03.680 ,3,1,0.,12.0,0.,12.0,0.,12.0,0.,12.0
1980-11-15 03:44:15.680 ,3,0,0.,12.0,0.,12.0,0.,12.0,0.,12.0
1980-11-15 03:44:27.680 ,3,0,0.,12.0,0.,12.0,0.,12.0,0.,12.0
1980-11-15 03:44:39.680 ,4,1,0.,12.0,0.,12.0,0.,12.0,0.,12.0
1980-11-15 03:44:51.680 ,4,1,0.,12.0,0.,12.0,0.,12.0,0.,12.0
1980-11-15 03:45:03.680 ,4,0,0.,12.0,0.,12.0,0.,12.0,0.,12.0
1980-11-15 03:45:15.680 ,4,0,0.,12.0,0.,12.0,0.,12.0,0.,12.0
1980-11-15 03:45:27.680 ,5,1,0.,12.0,0.,12.0,0.,12.0,0.,12.0
1980-11-15 03:45:39.680 ,5,1,0.,12.0,0.,12.0,0.,12.0,0.,12.0
1980-11-15 03:45:51.680 ,5,0,0.,12.0,0.,12.0,0.,12.0,0.,12.0
1980-11-15 03:46:03.680 ,5,0,0.,12.0,0.,12.0,0.,12.0,0.,12.0
1980-11-15 03:46:15.680 ,6,1,0.,12.0,0.,12.0,0.,12.0,0.,12.0
1980-11-15 03:46:27.680 ,6,1,0.,12.0,0.,12.0,0.,12.0,0.,12.0
1980-11-15 03:46:39.680 ,6,0,0.,12.0,0.,12.0,0.,12.0,0.,12.0
1980-11-15 03:46:51.680 ,6,0,0.,12.0,0.,12.0,0.,12.0,0.,12.0
1980-11-15 03:47:03.680 ,7,1,0.,12.0,0.,12.0,0.,12.0,0.,12.0
1980-11-15 03:47:15.680 ,7,1,0.,12.0,0.,12.0,0.,12.0,0.,12.0
1980-11-15 03:47:27.680 ,7,0,0.,12.0,0.,12.0,0.,12.0,0.,12.0
1980-11-15 03:47:39.680 ,7,0,0.,12.0,0.,12.0,0.,12.0,0.,12.0
1980-11-15 03:47:51.680 ,7,1,0.,12.0,0.,12.0,0.,12.0,0.,12.0
1980-11-15 03:48:03.680 ,7,1,0.,12.0,0.,12.0,0.,12.0,0.,12.0
1980-11-15 03:48:15.680 ,7,0,0.,12.0,0.,12.0,0.,12.0,0.,12.0
1980-11-15 03:48:27.680 ,7,0,0.,12.0,0.,12.0,0.,12.0,0.,12.0
1980-11-15 03:48:39.680 ,6,1,0.,12.0,0.,12.0,0.,12.0,0.,12.0
1980-11-15 03:48:51.680 ,6,1,0.,12.0,0.,12.0,0.,12.0,0.,12.0
1980-11-15 03:49:03.680 ,6,0,0.,12.0,0.,12.0,0.,12.0,0.,12.0
1980-11-15 03:49:15.680 ,6,0,0.,12.0,0.,12.0,0.,12.0,0.,12.0
1980-11-15 03:49:27.680 ,5,1,0.,12.0,0.,12.0,0.,12.0,0.,12.0
1980-11-15 03:49:39.680 ,5,1,0.,12.0,0.,12.0,0.,12.0,0.,12.0
1980-11-15 03:49:51.680 ,5,0,0.,12.0,0.,12.0,0.,12.0,0.,12.0
1980-11-15 03:50:03.680 ,5,0,0.,12.0,0.,12.0,0.,12.0,0.,12.0
1980-11-15 03:50:15.680 ,4,1,0.,12.0,0.,12.0,0.,12.0,0.,12.0
1980-11-15 03:50:27.680 ,4,1,0.,12.0,0.,12.0,0.,12.0,0.,12.0
1980-11-15 03:50:39.680 ,4,0,0.,12.0,0.,12.0,0.,12.0,0.,12.0
1980-11-15 03:50:51.680 ,4,0,0.,12.0,0.,12.0,0.,12.0,0.,12.0
1980-11-15 03:51:03.680 ,3,1,0.,12.0,0.,12.0,0.,12.0,0.,12.0
1980-11-15 03:51:15.680 ,3,1,0.,12.0,0.,12.0,0.,12.0,0.,12.0
1980-11-15 03:51:27.680 ,3,0,0.,12.0,0.,12.0,0.,12.0,0.,12.0
1980-11-15 03:51:39.680 ,3,0,0.,12.0,0.,12.0,0.,12.0,0.,12.0
1980-11-15 03:51:51.680 ,2,1,0.,12.0,0.,12.0,0.,12.0,0.,12.0
1980-11-15 03:52:03.680 ,2,1,0.,12.0,0.,12.0,0.,12.0,0.,12.0
1980-11-15 03:52:15.680 ,2,0,0.,12.0,0.,12.0,0.,12.0,0.,12.0
1980-11-15 03:52:27.680 ,2,0,0.,12.0,0.,12.0,0.,12.0,0.,12.0
1980-11-15 03:52:39.680 ,1,1,0.,12.0,0.,12.0,0.,12.0,0.,12.0
1980-11-15 03:52:51.680 ,1,1,0.,12.0,0.,12.0,0.,12.0,0.,12.0
1980-11-15 03:53:03.680 ,1,0,1.,12.0,0.,12.0,0.,12.0,0.,12.0
1980-11-15 03:53:15.680 ,1,0,0.,12.0,0.,12.0,0.,12.0,0.,12.0
1980-11-15 03:53:27.680 ,0,1,0.,12.0,0.,12.0,0.,12.0,0.,12.0
1980-11-15 03:53:39.680 ,0,1,0.,12.0,0.,12.0,0.,12.0,0.,12.0
1980-11-15 03:53:51.680 ,0,0,0.,12.0,0.,12.0,0.,12.0,0.,12.0
1980-11-15 03:54:03.680 ,0,0,0.,12.0,0.,12.0,0.,12.0,0.,12.0
1980-11-15 03:54:15.680 ,0,1,0.,12.0,0.,12.0,0.,12.0,0.,12.0
1980-11-15 03:54:27.680 ,0,1,0.,12.0,0.,12.0,0.,12.0,0.,12.0
1980-11-15 03:54:39.680 ,0,0,0.,12.0,0.,12.0,0.,12.0,0.,12.0
1980-11-15 03:54:51.680 ,0,0,0.,12.0,0.,12.0,0.,12.0,0.,12.0
1980-11-15 03:55:21.680 ,0,0,,0,,0,,0,,0
1980-11-15 03:55:33.680 ,0,0,,0,,0,,0,,0
1980-11-15 03:55:27.680 ,0,0,0.,12.0,0.,12.0,0.,12.0,0.,12.0
1980-11-15 03:55:39.680 ,0,0,0.,12.0,0.,12.0,0.,12.0,0.,12.0
1980-11-15 03:55:51.680 ,2,1,0.,12.0,0.,12.0,0.,12.0,0.,12.0
1980-11-15 03:56:03.680 ,2,1,0.,12.0,0.,12.0,0.,12.0,0.,12.0
1980-11-15 03:56:15.680 ,2,0,0.,12.0,0.,12.0,0.,12.0,0.,12.0
1980-11-15 03:56:27.680 ,2,0,0.,12.0,0.,12.0,0.,12.0,0.,12.0
1980-11-15 03:56:39.680 ,3,1,0.,12.0,0.,12.0,0.,12.0,0.,12.0
1980-11-15 03:56:51.680 ,3,1,0.,12.0,0.,12.0,0.,12.0,0.,12.0
1980-11-15 03:57:03.680 ,3,0,0.,12.0,0.,12.0,0.,12.0,0.,12.0
1980-11-15 03:57:15.680 ,3,0,0.,12.0,0.,12.0,0.,12.0,0.,12.0
1980-11-15 03:57:27.680 ,4,1,0.,12.0,0.,12.0,0.,12.0,0.,12.0
1980-11-15 03:57:39.680 ,4,1,0.,12.0,0.,12.0,0.,12.0,0.,12.0
1980-11-15 03:57:51.680 ,4,0,0.,12.0,0.,12.0,0.,12.0,0.,12.0
1980-11-15 03:58:03.680 ,4,0,0.,12.0,0.,12.0,0.,12.0,0.,12.0
1980-11-15 03:58:15.680 ,5,1,0.,12.0,0.,12.0,0.,12.0,0.,12.0
1980-11-15 03:58:27.680 ,5,1,0.,12.0,0.,12.0,0.,12.0,0.,12.0
1980-11-15 03:58:39.680 ,5,0,0.,12.0,0.,12.0,0.,12.0,0.,12.0
1980-11-15 03:58:51.680 ,5,0,0.,12.0,0.,12.0,0.,12.0,0.,12.0
1980-11-15 03:59:03.680 ,6,1,0.,12.0,0.,12.0,0.,12.0,0.,12.0
1980-11-15 03:59:15.680 ,6,1,0.,12.0,0.,12.0,0.,12.0,0.,12.0
1980-11-15 03:59:27.680 ,6,0,0.,12.0,0.,12.0,0.,12.0,0.,12.0
1980-11-15 03:59:39.680 ,6,0,0.,12.0,0.,12.0,0.,12.0,0.,12.0
1980-11-15 03:59:51.680 ,7,1,0.,12.0,0.,12.0,0.,12.0,0.,12.0
1980-11-15 04:00:03.680 ,7,1,0.,12.0,0.,12.0,0.,12.0,0.,12.0
1980-11-15 04:00:15.680 ,7,0,0.,12.0,0.,12.0,0.,12.0,0.,12.0
1980-11-15 04:00:27.680 ,7,0,0.,12.0,0.,12.0,0.,12.0,0.,12.0
1980-11-15 04:00:39.680 ,7,1,0.,12.0,0.,12.0,0.,12.0,0.,12.0
1980-11-15 04:00:51.680 ,7,1,0.,12.0,0.,12.0,0.,12.0,0.,12.0
1980-11-15 04:01:03.680 ,7,0,0.,12.0,0.,12.0,0.,12.0,0.,12.0
1980-11-15 04:01:15.680 ,7,0,0.,12.0,0.,12.0,0.,12.0,0.,12.0
1980-11-15 04:01:27.680 ,6,1,0.,12.0,0.,12.0,0.,12.0,0.,12.0
1980-11-15 04:01:39.680 ,6,1,0.,12.0,0.,12.0,0.,12.0,0.,12.0
1980-11-15 04:01:51.680 ,6,0,0.,12.0,0.,12.0,0.,12.0,0.,12.0
1980-11-15 04:02:03.680 ,6,0,0.,12.0,0.,12.0,0.,12.0,0.,12.0
1980-11-15 04:02:15.680 ,5,1,0.,12.0,0.,12.0,0.,12.0,0.,12.0
1980-11-15 04:02:27.680 ,5,1,0.,12.0,0.,12.0,0.,12.0,0.,12.0
1980-11-15 04:02:39.680 ,5,0,0.,12.0,0.,12.0,0.,12.0,0.,12.0
1980-11-15 04:02:51.680 ,5,0,0.,12.0,0.,12.0,0.,12.0,0.,12.0
1980-11-15 04:03:03.680 ,4,1,0.,12.0,0.,12.0,0.,12.0,0.,12.0
1980-11-15 04:03:15.680 ,4,1,0.,12.0,0.,12.0,0.,12.0,0.,12.0
1980-11-15 04:03:27.680 ,0,0,0.,12.0,0.,12.0,0.,12.0,0.,12.0
1980-11-15 04:03:39.680 ,0,0,0.,12.0,0.,12.0,0.,12.0,0.,12.0
1980-11-15 04:04:19.880 ,0,0,0.,12.0,0.,12.0,0.,12.0,0.,12.0
1980-11-15 04:04:31.880 ,0,0,0.,12.0,0.,12.0,0.,12.0,0.,12.0
1980-11-15 04:04:39.680 ,2,1,0.,12.0,0.,12.0,0.,12.0,0.,12.0
1980-11-15 04:04:51.680 ,2,1,0.,12.0,0.,12.0,0.,12.0,0.,12.0
1980-11-15 04:05:03.680 ,2,0,0.,12.0,0.,12.0,0.,12.0,0.,12.0
1980-11-15 04:05:15.680 ,2,0,0.,12.0,0.,12.0,0.,12.0,0.,12.0
1980-11-15 04:05:27.680 ,1,1,0.,12.0,0.,12.0,0.,12.0,0.,12.0
1980-11-15 04:05:39.680 ,1,1,0.,12.0,0.,12.0,0.,12.0,0.,12.0
1980-11-15 04:05:51.680 ,1,0,0.,12.0,0.,12.0,0.,12.0,0.,12.0
1980-11-15 04:06:03.680 ,1,0,0.,12.0,0.,12.0,0.,12.0,0.,12.0
1980-11-15 04:06:15.680 ,0,1,0.,12.0,0.,12.0,0.,12.0,0.,12.0
1980-11-15 04:06:27.680 ,0,1,0.,12.0,0.,12.0,0.,12.0,0.,12.0
1980-11-15 04:06:39.680 ,0,0,0.,12.0,0.,12.0,0.,12.0,0.,12.0
1980-11-15 04:06:51.680 ,0,0,0.,12.0,0.,12.0,0.,12.0,0.,12.0
1980-11-15 04:07:03.680 ,0,1,0.,12.0,0.,12.0,0.,12.0,0.,12.0
1980-11-15 04:07:15.680 ,0,1,0.,12.0,0.,12.0,0.,12.0,0.,12.0
1980-11-15 04:07:27.680 ,0,0,0.,12.0,0.,12.0,0.,12.0,0.,12.0
1980-11-15 04:07:39.680 ,0,0,0.,12.0,0.,12.0,0.,12.0,0.,12.0
1980-11-15 04:07:51.680 ,1,1,0.,12.0,0.,12.0,0.,12.0,0.,12.0
1980-11-15 04:08:03.680 ,1,1,0.,12.0,0.,12.0,0.,12.0,0.,12.0
1980-11-15 04:08:15.680 ,1,0,0.,12.0,0.,12.0,0.,12.0,0.,12.0
1980-11-15 04:08:27.680 ,1,0,0.,12.0,0.,12.0,0.,12.0,0.,12.0
1980-11-15 04:08:39.680 ,2,1,0.,12.0,0.,12.0,0.,12.0,0.,12.0
1980-11-15 04:08:51.680 ,2,1,0.,12.0,0.,12.0,0.,12.0,0.,12.0
1980-11-15 04:09:03.680 ,2,0,0.,12.0,0.,12.0,0.,12.0,0.,12.0
1980-11-15 04:09:15.680 ,2,0,0.,12.0,0.,12.0,0.,12.0,0.,12.0
1980-11-15 04:09:27.680 ,3,1,0.,12.0,0.,12.0,0.,12.0,0.,12.0
1980-11-15 04:09:39.680 ,3,1,0.,12.0,0.,12.0,0.,12.0,0.,12.0
1980-11-15 04:09:51.680 ,3,0,0.,12.0,0.,12.0,0.,12.0,0.,12.0
1980-11-15 04:10:03.680 ,3,0,0.,12.0,0.,12.0,0.,12.0,0.,12.0
1980-11-15 04:10:15.680 ,4,1,0.,12.0,0.,12.0,0.,12.0,0.,12.0
1980-11-15 04:10:27.680 ,4,1,0.,12.0,0.,12.0,0.,12.0,0.,12.0
1980-11-15 04:10:39.680 ,4,0,0.,12.0,0.,12.0,0.,12.0,0.,12.0
1980-11-15 04:10:51.680 ,4,0,0.,12.0,0.,12.0,0.,12.0,0.,12.0
1980-11-15 04:11:03.680 ,5,1,0.,12.0,0.,12.0,0.,12.0,0.,12.0
1980-11-15 04:11:15.680 ,5,1,0.,12.0,0.,12.0,0.,12.0,0.,12.0
1980-11-15 04:11:27.680 ,5,0,0.,12.0,0.,12.0,0.,12.0,0.,12.0
1980-11-15 04:11:39.680 ,5,0,0.,12.0,0.,12.0,0.,12.0,0.,12.0
1980-11-15 04:11:51.680 ,6,1,0.,12.0,0.,12.0,0.,12.0,0.,12.0
1980-11-15 04:12:03.680 ,6,1,0.,12.0,0.,12.0,0.,12.0,0.,12.0
1980-11-15 04:12:15.680 ,6,0,0.,12.0,0.,12.0,0.,12.0,0.,12.0
1980-11-15 04:12:27.680 ,6,0,0.,12.0,0.,12.0,0.,12.0,0.,12.0
1980-11-15 04:12:39.680 ,7,1,0.,12.0,0.,12.0,0.,12.0,0.,12.0
1980-11-15 04:12:51.680 ,7,1,0.,12.0,0.,12.0,0.,12.0,0.,12.0
1980-11-15 04:13:03.680 ,7,0,0.,12.0,0.,12.0,0.,12.0,0.,12.0
1980-11-15 04:13:15.680 ,7,0,0.,12.0,0.,12.0,0.,12.0,0.,12.0
1980-11-15 04:13:27.680 ,7,1,0.,12.0,0.,12.0,0.,12.0,0.,12.0
1980-11-15 04:13:39.680 ,7,1,0.,12.0,0.,12.0,0.,12.0,0.,12.0
1980-11-15 04:13:51.680 ,7,0,0.,12.0,0.,12.0,0.,12.0,0.,12.0
1980-11-15 04:14:03.680 ,7,0,0.,12.0,0.,12.0,0.,12.0,0.,12.0
1980-11-15 04:14:15.680 ,6,1,0.,12.0,0.,12.0,0.,12.0,0.,12.0
1980-11-15 04:14:27.680 ,6,1,0.,12.0,0.,12.0,0.,12.0,0.,12.0
1980-11-15 04:14:39.680 ,6,0,0.,12.0,0.,12.0,0.,12.0,0.,12.0
1980-11-15 04:14:51.680 ,6,0,0.,12.0,0.,12.0,0.,12.0,0.,12.0
1980-11-15 04:15:03.680 ,5,1,0.,12.0,0.,12.0,0.,12.0,0.,12.0
1980-11-15 04:15:15.680 ,5,1,0.,12.0,0.,12.0,0.,12.0,0.,12.0
1980-11-15 04:15:27.680 ,5,0,0.,12.0,0.,12.0,0.,12.0,0.,12.0
1980-11-15 04:15:39.680 ,5,0,0.,12.0,0.,12.0,0.,12.0,0.,12.0
1980-11-15 04:15:51.680 ,4,1,0.,12.0,0.,12.0,0.,12.0,0.,12.0
1980-11-15 04:16:03.680 ,4,1,0.,12.0,0.,12.0,0.,12.0,0.,12.0
1980-11-15 04:16:15.680 ,4,0,0.,12.0,0.,12.0,0.,12.0,0.,12.0
1980-11-15 04:16:27.680 ,4,0,0.,12.0,0.,12.0,0.,12.0,0.,12.0
1980-11-15 04:16:39.680 ,3,1,0.,12.0,0.,12.0,0.,12.0,0.,12.0
1980-11-15 04:16:51.680 ,3,1,0.,12.0,0.,12.0,0.,12.0,0.,12.0
1980-11-15 04:17:03.680 ,3,0,0.,12.0,0.,12.0,0.,12.0,0.,12.0
1980-11-15 04:17:15.680 ,3,0,0.,12.0,0.,12.0,0.,12.0,0.,12.0
1980-11-15 04:17:27.680 ,2,1,0.,12.0,0.,12.0,0.,12.0,0.,12.0
1980-11-15 04:17:39.680 ,2,1,0.,12.0,0.,12.0,0.,12.0,0.,12.0